Vorticity
4 -11 12 21 7 2 5 16 28 35 16 21 15 14 15 5 8 8 -0 7 10 13 7 3 2 -2 14 3 -0 13 13 10 4 5 7 12 6 5 19 14 14 16 16 15 9 5 -3 8 1 6 3 -2 6 18
22 18 21 13 -3 15 22 24 8 53 58 19 18 11 14 13 13 6 10 9 7 10 1 8 18 9 11 8 23 23 -1 -3 -3 20 23 13 -4 2 1 8 7 6 -5 6 0 10 8 9 9 -2 12 10 13 13
9 13 14 11 12 1 10 9 26 19 70 62 16 18 17 18 17 6 15 8 -1 8 6 10 6 8 -2 4 -2 5 10 4 2 15 1 5 12 12 6 8 2 3 5 2 3 0 2 8 8 5 12 12 8 4
2 4 6 9 10 6 5 16 17 10 45 56 64 15 7 18 22 36 19 11 10 14 -4 3 6 6 10 4 6 5 3 10 6 7 12 12 6 4 8 1 5 7 4 2 5 3 7 7 6 9 7 6 1 14
9 3 2 1 5 5 4 12 20 15 27 36 46 49 39 26 24 17 26 37 50 11 28 5 -1 5 7 5 5 6 14 15 14 7 4 9 7 9 8 12 7 -3 3 -2 10 12 5 6 6 10 12 12 4 2
11 7 3 4 2 7 8 17 26 15 25 22 30 31 28 27 24 24 18 17 15 37 27 45 28 29 9 13 0 4 8 18 2 -3 5 2 4 5 6 6 7 1 13 13 12 9 9 7 4 5 6 9 11 14
13 15 12 7 6 10 19 32 27 12 30 22 19 27 23 23 22 13 5 12 19 19 9 17 44 61 39 27 15 2 -16 -8 14 21 19 16 12 7 4 2 6 9 8 -6 1 -2 -3 9 7 7 4 9 15 11
16 14 15 17 28 52 55 35 25 27 26 7 23 22 20 21 17 8 12 15 16 10 16 20 12 23 20 25 36 25 19 14 2 -4 8 10 19 13 15 17 10 7 7 12 20 21 18 10 13 21 19 18 29 17
9 11 30 18 36 52 28 28 36 35 16 21 8 20 20 27 26 15 -1 8 8 2 -3 25 42 45 33 39 41 44 33 35 41 32 31 33 30 15 19 18 9 -4 5 9 17 6 4 11 6 10 13 26 2 -2
8 12 37 21 13 23 37 20 25 -5 9 -1 8 8 10 7 5 28 -1 10 15 -1 13 31 36 22 33 27 17 32 26 24 26 28 29 25 20 23 18 31 27 25 25 10 -4 -2 8 6 14 11 26 -9 4 11
14 10 45 19 19 20 35 53 69 3 23 12 6 5 14 24 21 3 8 5 -0 18 48 -15 -7 3 11 11 41 13 -8 -4 3 10 12 23 17 26 26 27 29 25 23 22 27 29 30 22 25 33 -1 11 33 32
9 7 17 19 17 10 19 8 29 22 20 21 21 13 19 12 1 8 0 9 20 2 -15 29 -6 -3 -0 -1 -2 -0 7 11 7 7 10 14 26 -1 4 12 14 22 21 23 23 15 20 25 27 31 26 21 13 7
7 7 8 19 8 8 10 20 13 13 16 5 22 -6 26 -8 -1 14 25 33 26 2 6 -5 24 1 8 17 17 13 11 11 11 8 6 -3 19 20 22 19 19 21 25 28 27 30 27 32 38 27 18 23 28 20
13 9 12 9 8 7 11 9 6 10 14 11 5 7 20 13 8 -6 15 8 15 13 8 7 5 3 3 11 17 8 9 3 6 5 46 26 32 34 25 34 26 20 17 22 18 20 13 23 25 17 9 8 6 10
5 9 4 11 11 9 9 11 13 10 10 9 5 15 10 14 2 5 0 -6 12 11 11 12 4 2 11 7 -6 4 13 13 28 15 17 15 11 3 19 19 18 14 15 19 18 12 7 9 15 17 20 21 16 14
9 4 7 9 10 8 9 7 4 15 21 13 23 17 26 23 21 23 29 20 18 15 16 22 21 15 18 14 15 15 15 16 12 9 16 20 24 19 29 28 27 24 18 15 16 17 18 15 13 12 12 10 12 16
15 8 5 4 1 1 5 6 11 23 11 6 5 10 7 -0 19 15 16 16 21 17 12 6 9 11 12 8 11 22 27 19 28 23 14 10 10 8 11 14 13 15 15 14 12 10 8 9 13 18 18 14 11 7
21 23 14 6 4 4 5 5 6 3 4 8 8 15 11 18 12 8 8 7 11 33 46 28 23 25 27 18 6 3 4 6 8 8 11 13 19 16 15 12 9 6 8 12 15 16 14 12 9 6 4 4 3 4
13 17 22 25 23 15 14 6 8 7 6 7 7 6 5 4 5 3 3 3 2 3 3 2 6 4 2 5 6 6 10 19 24 25 22 15 10 9 11 12 12 11 11 10 8 7 6 5 6 6 7 8 9 10
9 9 12 14 13 19 18 22 17 19 27 31 20 12 2 4 5 4 4 4 5 5 7 8 8 6 8 10 23 23 11 9 10 12 12 12 11 11 10 10 9 8 6 6 6 7 8 10 11 11 12 14 12 9
9 10 10 9 8 9 10 9 10 15 12 24 43 48 38 21 3 -0 3 -1 3 18 20 28 41 42 29 12 7 10 12 11 14 14 13 10 7 6 6 7 7 8 9 11 12 13 13 12 9 8 7 7 5 10
8 8 10 10 9 9 10 9 9 10 9 12 13 26 35 38 39 37 44 42 22 14 11 11 9 9 10 11 10 10 9 7 6 6 6 6 7 9 8 8 10 13 14 13 9 8 7 8 8 8 9 9 13 12
9 8 9 8 10 9 9 8 9 9 8 7 7 9 9 10 9 11 10 11 10 11 11 10 9 10 9 9 8 6 6 6 7 8 8 8 10 9 9 12 13 11 8 8 8 9 8 9 8 8 13 5 13 22
9 9 7 7 12 10 8 14 8 9 9 7 7 7 7 9 9 10 10 11 10 11 10 8 7 6 6 7 6 7 8 8 7 8 10 12 13 12 12 11 8 8 9 10 9 8 9 7 8 13 2 16 22 17
9 6 9 11 7 13 8 10 10 9 9 6 8 8 6 8 8 8 5 8 9 6 6 6 8 9 9 9 9 10 10 10 11 12 13 14 13 12 11 10 10 10 8 8 9 8 8 7 16 3 16 22 15 7
9 7 10 11 12 9 9 11 10 9 9 6 9 7 8 8 8 6 6 12 8 8 9 11 12 12 12 12 11 10 11 12 14 15 14 13 10 10 9 9 9 8 9 9 8 7 9 11 7 10 22 17 8 10
11 9 8 11 11 9 10 9 11 11 10 8 9 8 6 9 11 6 8 12 10 10 10 11 12 11 11 11 12 13 12 13 13 12 11 9 9 9 9 10 10 8 9 8 8 7 9 12 6 18 19 10 9 15
10 14 9 8 9 10 12 9 7 7 11 16 12 7 9 12 13 6 7 9 9 10 11 10 11 11 11 11 11 10 10 10 10 10 10 10 11 10 11 10 9 9 8 8 7 9 10 7 14 20 14 8 13 20
12 13 13 10 8 10 9 12 9 11 10 7 9 10 12 12 9 10 11 10 11 10 11 10 10 10 9 9 9 9 9 9 9 10 10 10 10 10 10 10 9 9 9 9 7 11 9 9 19 17 8 11 17 26
11 12 11 11 9 9 8 7 10 10 11 13 8 6 7 9 8 8 9 12 13 12 11 11 11 10 9 10 10 8 7 9 10 10 11 10 10 9 9 9 9 10 10 7 9 9 10 18 18 9 8 15 23 27
13 14 14 12 12 9 9 9 8 8 9 9 11 14 12 9 8 6 5 7 7 11 13 12 12 10 11 11 6 7 9 8 9 9 10 10 9 8 9 9 9 10 8 8 8 12 15 19 12 7 12 20 27 28
11 11 8 12 12 11 9 8 8 8 7 10 10 11 11 11 11 10 8 7 7 7 9 13 14 13 11 9 7 7 9 9 9 8 9 11 10 10 9 9 10 10 6 9 13 15 21 13 7 10 17 26 30 29
17 11 9 9 8 9 10 11 11 9 8 8 9 11 9 7 12 14 9 9 9 9 8 12 12 10 11 8 8 9 9 10 9 8 10 12 11 10 8 10 11 7 8 10 17 20 16 9 9 13 23 29 30 30
Height
5371 5373 5374 5375 5377 5379 5381 5385 5388 5389 5390 5398 5410 5422 5432 5440 5447 5454 5467 5475 5480 5488 5499 5507 5516 5525 5535 5544 5548 5552 5563 5563 5570 5570 5570 5569 5570 5572 5576 5583 5588 5588 5590 5591 5591 5588 5587 5604 5600 5597 5600 5594 5596 5596
5363 5364 5365 5366 5367 5368 5368 5367 5364 5361 5362 5371 5381 5391 5404 5414 5422 5430 5441 5453 5461 5465 5476 5484 5495 5507 5515 5523 5529 5532 5536 5545 5551 5550 5548 5552 5553 5556 5561 5563 5569 5568 5574 5576 5575 5573 5578 5580 5580 5577 5579 5579 5578 5577
5357 5357 5356 5356 5356 5355 5352 5348 5344 5337 5333 5340 5350 5361 5373 5384 5393 5402 5414 5428 5435 5443 5451 5461 5478 5485 5492 5501 5506 5512 5517 5521 5528 5531 5531 5533 5531 5537 5538 5542 5549 5553 5555 5553 5555 5563 5564 5564 5562 5560 5560 5561 5560 5559
5350 5349 5348 5347 5345 5342 5338 5333 5327 5321 5317 5318 5326 5338 5348 5359 5369 5376 5383 5402 5412 5420 5424 5438 5452 5459 5471 5478 5484 5491 5499 5502 5509 5512 5510 5512 5514 5517 5518 5522 5527 5538 5539 5540 5537 5545 5547 5549 5546 5543 5541 5544 5544 5542
5341 5341 5339 5336 5333 5329 5324 5320 5316 5311 5307 5307 5312 5321 5334 5346 5356 5363 5369 5381 5390 5398 5397 5411 5422 5435 5447 5456 5464 5469 5475 5480 5485 5489 5489 5492 5494 5499 5497 5500 5507 5520 5522 5519 5520 5523 5522 5530 5528 5526 5526 5525 5525 5523
5331 5331 5329 5326 5322 5316 5311 5306 5304 5302 5301 5304 5308 5316 5327 5337 5347 5353 5359 5367 5380 5383 5387 5390 5401 5414 5420 5431 5441 5448 5454 5456 5465 5469 5469 5471 5475 5479 5478 5479 5497 5502 5500 5500 5500 5502 5504 5511 5512 5509 5508 5509 5507 5507
5325 5322 5318 5312 5306 5299 5293 5291 5292 5293 5296 5301 5308 5315 5323 5332 5337 5343 5350 5369 5372 5374 5377 5379 5385 5392 5397 5407 5419 5427 5433 5438 5444 5447 5448 5453 5457 5457 5455 5460 5493 5485 5481 5481 5480 5481 5485 5491 5491 5493 5491 5492 5490 5489
5319 5315 5308 5300 5288 5276 5274 5277 5282 5286 5292 5300 5307 5314 5321 5327 5334 5343 5351 5359 5360 5363 5365 5366 5376 5387 5389 5396 5403 5409 5414 5417 5422 5428 5431 5436 5438 5435 5432 5455 5469 5464 5461 5461 5463 5461 5463 5471 5472 5473 5475 5473 5471 5468
5314 5309 5301 5292 5278 5270 5270 5275 5279 5283 5293 5300 5306 5312 5318 5324 5333 5341 5348 5352 5356 5359 5360 5365 5371 5376 5379 5386 5392 5396 5398 5402 5404 5408 5412 5416 5415 5415 5434 5437 5444 5443 5438 5443 5445 5445 5449 5452 5455 5457 5457 5457 5454 5450
5312 5305 5297 5288 5280 5276 5275 5277 5280 5286 5293 5299 5308 5314 5319 5326 5334 5338 5344 5348 5351 5353 5359 5363 5365 5367 5370 5376 5380 5385 5388 5391 5392 5398 5398 5396 5398 5411 5420 5417 5416 5416 5421 5421 5427 5433 5432 5430 5434 5437 5439 5439 5436 5433
5311 5306 5300 5293 5286 5281 5279 5280 5283 5289 5295 5303 5310 5316 5322 5326 5332 5337 5341 5344 5347 5353 5357 5359 5363 5365 5367 5372 5376 5378 5379 5381 5383 5387 5386 5387 5395 5407 5398 5392 5391 5397 5402 5403 5406 5409 5410 5411 5415 5419 5421 5420 5418 5416
5313 5309 5305 5300 5296 5293 5291 5291 5294 5299 5304 5310 5315 5320 5325 5329 5334 5337 5340 5344 5348 5351 5353 5356 5360 5363 5366 5368 5371 5374 5375 5376 5378 5380 5380 5380 5391 5384 5379 5378 5377 5378 5384 5389 5389 5388 5388 5390 5394 5398 5401 5401 5400 5399
5315 5312 5309 5307 5305 5304 5304 5304 5305 5307 5312 5317 5320 5323 5327 5331 5333 5337 5340 5344 5348 5350 5353 5354 5357 5360 5362 5365 5368 5369 5369 5371 5371 5370 5371 5377 5370 5366 5365 5363 5364 5366 5369 5371 5370 5371 5374 5378 5382 5385 5385 5384 5384 5384
5318 5316 5314 5312 5311 5310 5311 5313 5314 5315 5318 5321 5324 5327 5329 5331 5334 5338 5341 5344 5346 5347 5348 5350 5352 5356 5358 5359 5361 5362 5362 5362 5362 5363 5364 5360 5358 5357 5356 5356 5358 5360 5361 5360 5361 5362 5365 5367 5368 5369 5371 5372 5372 5371
5320 5319 5318 5317 5315 5315 5315 5316 5318 5320 5322 5323 5326 5329 5331 5334 5337 5339 5341 5343 5344 5345 5346 5348 5350 5353 5354 5354 5356 5357 5356 5355 5355 5355 5353 5353 5353 5353 5352 5351 5352 5354 5355 5355 5356 5357 5359 5360 5360 5361 5361 5361 5361 5361
5319 5319 5319 5320 5319 5319 5319 5320 5320 5321 5322 5325 5327 5330 5331 5333 5334 5336 5337 5339 5340 5341 5342 5343 5345 5348 5349 5349 5351 5350 5349 5349 5349 5347 5348 5347 5347 5347 5346 5346 5347 5348 5349 5349 5350 5351 5352 5352 5353 5353 5353 5352 5351 5350
5317 5317 5317 5317 5317 5318 5319 5320 5322 5323 5324 5325 5327 5328 5329 5330 5330 5331 5333 5334 5335 5336 5338 5340 5342 5343 5344 5344 5344 5343 5343 5342 5342 5343 5344 5343 5343 5343 5342 5342 5343 5343 5343 5345 5345 5346 5346 5346 5345 5345 5344 5343 5342 5341
5316 5315 5315 5315 5315 5316 5317 5318 5320 5321 5321 5323 5324 5326 5326 5327 5328 5329 5330 5331 5332 5332 5332 5334 5336 5337 5339 5340 5340 5341 5340 5340 5340 5340 5340 5339 5339 5339 5339 5339 5339 5339 5339 5339 5339 5338 5338 5338 5338 5337 5336 5335 5334 5332
5317 5315 5314 5313 5313 5313 5314 5315 5315 5316 5317 5319 5320 5321 5323 5324 5325 5327 5329 5330 5331 5332 5332 5333 5334 5335 5335 5336 5337 5337 5336 5336 5336 5335 5335 5335 5336 5336 5336 5335 5335 5335 5335 5334 5334 5334 5333 5333 5331 5330 5328 5326 5324 5321
5316 5315 5313 5312 5312 5312 5311 5311 5311 5311 5311 5310 5311 5313 5316 5319 5321 5323 5325 5326 5327 5329 5329 5330 5330 5331 5331 5332 5332 5332 5332 5333 5333 5333 5333 5332 5332 5332 5332 5332 5332 5331 5331 5331 5330 5329 5328 5326 5324 5321 5319 5316 5313 5309
5314 5313 5313 5312 5311 5311 5310 5310 5309 5309 5308 5306 5303 5303 5306 5311 5315 5318 5320 5321 5322 5323 5323 5323 5324 5325 5326 5327 5329 5330 5330 5331 5331 5331 5331 5331 5331 5331 5330 5330 5329 5328 5328 5326 5325 5323 5321 5318 5316 5313 5310 5306 5302 5297
5311 5311 5311 5311 5311 5310 5311 5311 5310 5310 5309 5307 5306 5305 5305 5308 5310 5313 5315 5317 5318 5319 5320 5322 5323 5324 5326 5327 5328 5328 5329 5329 5329 5329 5329 5328 5328 5327 5327 5326 5325 5324 5322 5320 5318 5316 5313 5310 5307 5304 5300 5295 5289 5284
5306 5307 5308 5308 5309 5309 5311 5309 5310 5310 5309 5309 5309 5309 5309 5310 5312 5314 5316 5317 5318 5319 5320 5322 5323 5324 5325 5326 5327 5327 5327 5327 5327 5327 5326 5325 5324 5323 5322 5321 5320 5318 5317 5315 5312 5309 5306 5303 5299 5295 5289 5283 5276 5269
5301 5302 5303 5304 5306 5308 5308 5308 5309 5309 5309 5310 5310 5310 5311 5313 5314 5315 5317 5318 5319 5320 5321 5322 5322 5323 5324 5325 5325 5325 5325 5324 5323 5323 5322 5321 5320 5319 5318 5317 5315 5314 5312 5309 5306 5303 5299 5294 5289 5284 5277 5270 5262 5256
5294 5296 5298 5300 5301 5303 5304 5306 5306 5307 5309 5309 5309 5311 5311 5312 5314 5315 5316 5318 5318 5319 5320 5321 5321 5322 5322 5322 5321 5321 5321 5320 5320 5319 5319 5318 5317 5316 5315 5313 5311 5309 5306 5303 5299 5295 5290 5285 5279 5273 5266 5258 5251 5244
5285 5287 5291 5294 5296 5298 5300 5302 5303 5304 5305 5306 5308 5309 5310 5311 5312 5314 5315 5316 5316 5317 5317 5318 5318 5318 5318 5318 5318 5317 5317 5317 5317 5316 5316 5315 5313 5312 5310 5308 5306 5303 5300 5296 5292 5287 5282 5276 5270 5263 5254 5247 5240 5232
5276 5281 5284 5287 5289 5292 5294 5296 5298 5300 5301 5303 5305 5305 5306 5308 5310 5311 5311 5312 5313 5313 5314 5314 5315 5315 5315 5314 5314 5314 5314 5314 5313 5313 5312 5310 5309 5307 5305 5303 5300 5297 5293 5289 5285 5280 5274 5267 5260 5252 5244 5237 5230 5222
5268 5273 5276 5279 5282 5285 5287 5289 5292 5294 5297 5299 5301 5301 5303 5306 5307 5306 5307 5308 5309 5310 5310 5311 5311 5312 5312 5311 5311 5311 5310 5310 5309 5309 5308 5306 5305 5303 5300 5298 5294 5291 5287 5282 5277 5272 5265 5258 5251 5243 5236 5229 5221 5213
5259 5264 5267 5270 5273 5277 5280 5283 5285 5288 5291 5293 5295 5297 5299 5301 5302 5303 5304 5304 5305 5306 5306 5307 5307 5308 5308 5309 5309 5309 5309 5308 5307 5306 5305 5303 5300 5298 5295 5292 5289 5285 5280 5275 5270 5264 5258 5251 5243 5236 5229 5221 5213 5205
5247 5252 5256 5259 5264 5268 5272 5274 5277 5280 5284 5287 5289 5292 5294 5296 5297 5298 5299 5300 5301 5302 5302 5303 5303 5304 5305 5306 5306 5306 5306 5305 5304 5303 5300 5298 5296 5293 5290 5287 5283 5279 5274 5269 5263 5257 5250 5243 5236 5229 5222 5213 5205 5199
5235 5240 5245 5250 5255 5258 5262 5265 5269 5273 5276 5280 5282 5285 5288 5290 5292 5293 5294 5295 5296 5297 5298 5299 5300 5300 5301 5301 5301 5301 5302 5301 5299 5298 5296 5294 5291 5288 5285 5281 5277 5273 5268 5262 5256 5249 5243 5236 5229 5222 5214 5206 5199 5194
5222 5228 5234 5239 5244 5248 5252 5256 5261 5265 5269 5272 5275 5278 5281 5283 5285 5287 5289 5289 5290 5291 5292 5294 5295 5296 5296 5296 5296 5296 5296 5296 5294 5293 5291 5289 5286 5283 5280 5276 5272 5267 5262 5256 5249 5243 5236 5230 5223 5215 5207 5200 5194 5189
5211 5217 5222 5227 5233 5237 5243 5249 5253 5257 5261 5265 5268 5271 5273 5275 5278 5281 5281 5283 5283 5285 5287 5289 5290 5291 5291 5291 5292 5292 5291 5291 5289 5288 5286 5284 5282 5279 5275 5271 5266 5261 5256 5250 5243 5237 5230 5224 5217 5209 5201 5194 5188 5185